When you browse on this site, cookies collect data to enhance your experience and personalize the content and advertising you see.
Visit our Privacy Policy to learn more. By continuing to use the site, you agree to this use of cookies and data.
  • In Austria
  • List of Countries
  • For 7 days
  • Water Temperature
  • Weather Map
  • News
  • Weather Widgets
  • user-avatar
    Login

    Hourly Weather Atotonilco el Grande

    Today, 23 August, Friday

    Time Temperature Precipitation Wind Pressure Humidity
    00:00 +15°C° 0 mm 1 mps 593 mmHg 87%
    01:00 +15°C° 0 mm 1 mps 593 mmHg 88%
    02:00 +15°C° 0 mm 1 mps 593 mmHg 89%
    03:00 +14°C° 0 mm 1 mps 592 mmHg 89%
    04:00 +14°C° 0 mm 1 mps 592 mmHg 89%
    05:00 +14°C° 0 mm 1 mps 592 mmHg 89%
    06:00 +16°C° 0 mm 1 mps 593 mmHg 82%
    07:00 +19°C° 0 mm 1 mps 595 mmHg 75%
    08:00 +21°C° 0 mm 1 mps 596 mmHg 68%
    09:00 +22°C° 0.2 mm 1 mps 596 mmHg 63%
    10:00 +24°C° 0.2 mm 2 mps 596 mmHg 59%
    11:00 +25°C° 0.2 mm 3 mps 596 mmHg 54%
    12:00 +24°C° 1.2 mm 3 mps 596 mmHg 59%
    13:00 +24°C° 1.2 mm 3 mps 595 mmHg 63%
    14:00 +24°C° 1.2 mm 3 mps 595 mmHg 68%
    15:00 +22°C° 1.4 mm 3 mps 594 mmHg 72%
    16:00 +21°C° 1.4 mm 2 mps 593 mmHg 76%
    17:00 +20°C° 1.4 mm 2 mps 593 mmHg 79%
    18:00 +19°C° 0.5 mm 2 mps 593 mmHg 82%
    19:00 +17°C° 0.5 mm 2 mps 593 mmHg 85%
    20:00 +16°C° 0.5 mm 2 mps 594 mmHg 88%
    21:00 +16°C° 0 mm 2 mps 593 mmHg 87%
    22:00 +15°C° 0 mm 2 mps 593 mmHg 87%
    23:00 +15°C° 0 mm 2 mps 593 mmHg 86%

    Tomorrow, 24 August, Saturday

    Time Temperature Precipitation Wind Pressure Humidity
    00:00 +15°C° 0 mm 2 mps 593 mmHg 85%
    01:00 +15°C° 0 mm 2 mps 592 mmHg 84%
    02:00 +14°C° 0 mm 1 mps 592 mmHg 83%
    03:00 +15°C° 0 mm 1 mps 592 mmHg 82%
    04:00 +15°C° 0 mm 1 mps 592 mmHg 82%
    05:00 +15°C° 0 mm 1 mps 592 mmHg 81%
    06:00 +16°C° 0 mm 1 mps 593 mmHg 76%
    07:00 +19°C° 0 mm 1 mps 595 mmHg 70%
    08:00 +21°C° 0 mm 1 mps 596 mmHg 65%
    09:00 +22°C° 0 mm 1 mps 596 mmHg 59%
    10:00 +24°C° 0 mm 1 mps 596 mmHg 54%
    11:00 +26°C° 0 mm 1 mps 597 mmHg 48%
    12:00 +25°C° 0.5 mm 2 mps 596 mmHg 51%
    13:00 +25°C° 0.5 mm 2 mps 596 mmHg 54%
    14:00 +25°C° 0.5 mm 2 mps 595 mmHg 57%
    15:00 +24°C° 1.2 mm 2 mps 595 mmHg 64%
    16:00 +23°C° 1.2 mm 2 mps 594 mmHg 71%
    17:00 +21°C° 1.2 mm 2 mps 593 mmHg 77%
    18:00 +21°C° 0.8 mm 1 mps 594 mmHg 79%
    19:00 +20°C° 0.8 mm 1 mps 594 mmHg 81%
    20:00 +19°C° 0.8 mm 1 mps 594 mmHg 83%
    21:00 +19°C° 0 mm 1 mps 594 mmHg 83%
    22:00 +19°C° 0 mm 1 mps 594 mmHg 83%
    23:00 +16°C° 0 mm 0 mps 594 mmHg 83%

    Day after tomorrow, 25 August, Sunday

    Time Temperature Precipitation Wind Pressure Humidity
    00:00 +16°C° 0 mm 0 mps 593 mmHg 84%
    01:00 +15°C° 0 mm 0 mps 593 mmHg 85%
    02:00 +15°C° 0 mm 0 mps 592 mmHg 86%
    03:00 +14°C° 0 mm 0 mps 592 mmHg 86%
    04:00 +14°C° 0 mm 0 mps 592 mmHg 86%
    05:00 +15°C° 0 mm 1 mps 592 mmHg 86%
    06:00 +16°C° 0 mm 0 mps 593 mmHg 79%
    07:00 +18°C° 0 mm 0 mps 594 mmHg 71%
    08:00 +20°C° 0 mm 0 mps 596 mmHg 64%
    09:00 +24°C° 0.1 mm 1 mps 596 mmHg 59%
    10:00 +25°C° 0.1 mm 1 mps 596 mmHg 54%
    11:00 +26°C° 0.1 mm 2 mps 596 mmHg 49%
    12:00 +26°C° 1.2 mm 2 mps 596 mmHg 54%
    13:00 +25°C° 1.2 mm 3 mps 595 mmHg 59%
    14:00 +25°C° 1.2 mm 3 mps 594 mmHg 64%
    15:00 +22°C° 2.2 mm 3 mps 593 mmHg 71%
    16:00 +21°C° 2.2 mm 2 mps 593 mmHg 77%
    17:00 +20°C° 2.2 mm 2 mps 592 mmHg 83%
    18:00 +19°C° 0.6 mm 2 mps 592 mmHg 82%
    19:00 +18°C° 0.6 mm 2 mps 593 mmHg 80%
    20:00 +18°C° 0.6 mm 1 mps 593 mmHg 79%
    21:00 +18°C° 0.1 mm 1 mps 593 mmHg 79%
    22:00 +18°C° 0.1 mm 1 mps 593 mmHg 80%
    23:00 +16°C° 0.1 mm 1 mps 593 mmHg 80%

    26 August, Monday

    Time Temperature Precipitation Wind Pressure Humidity
    00:00 +16°C° 0 mm 1 mps 592 mmHg 81%
    01:00 +15°C° 0 mm 0 mps 592 mmHg 81%
    02:00 +15°C° 0 mm 0 mps 591 mmHg 81%
    03:00 +15°C° 0 mm 0 mps 591 mmHg 81%
    04:00 +15°C° 0 mm 0 mps 591 mmHg 81%
    05:00 +16°C° 0 mm 1 mps 591 mmHg 82%
    06:00 +16°C° 0 mm 0 mps 592 mmHg 75%
    07:00 +18°C° 0 mm 0 mps 593 mmHg 69%
    08:00 +20°C° 0 mm 0 mps 594 mmHg 63%
    09:00 +23°C° 0.2 mm 1 mps 595 mmHg 59%
    10:00 +25°C° 0.2 mm 1 mps 595 mmHg 55%
    11:00 +26°C° 0.2 mm 1 mps 595 mmHg 51%
    12:00 +25°C° 0.6 mm 2 mps 594 mmHg 55%
    13:00 +25°C° 0.6 mm 2 mps 594 mmHg 60%
    14:00 +25°C° 0.6 mm 3 mps 593 mmHg 64%
    15:00 +22°C° 1.4 mm 3 mps 593 mmHg 70%
    16:00 +21°C° 1.4 mm 3 mps 592 mmHg 76%
    17:00 +20°C° 1.4 mm 2 mps 592 mmHg 81%
    18:00 +19°C° 0.8 mm 2 mps 592 mmHg 83%
    19:00 +18°C° 0.8 mm 2 mps 592 mmHg 84%
    20:00 +18°C° 0.8 mm 1 mps 592 mmHg 85%
    21:00 +16°C° 0 mm 1 mps 592 mmHg 84%
    22:00 +16°C° 0 mm 1 mps 592 mmHg 83%
    23:00 +15°C° 0 mm 1 mps 592 mmHg 82%

    27 August, Tuesday

    Time Temperature Precipitation Wind Pressure Humidity
    00:00 +15°C° 0 mm 1 mps 592 mmHg 82%
    01:00 +14°C° 0 mm 0 mps 592 mmHg 82%
    02:00 +14°C° 0 mm 0 mps 592 mmHg 82%
    03:00 +14°C° 0 mm 0 mps 592 mmHg 83%
    04:00 +13°C° 0 mm 0 mps 592 mmHg 84%
    05:00 +13°C° 0 mm 0 mps 592 mmHg 84%
    06:00 +15°C° 0 mm 0 mps 592 mmHg 78%
    07:00 +16°C° 0 mm 0 mps 593 mmHg 72%
    08:00 +18°C° 0 mm 0 mps 594 mmHg 66%
    09:00 +22°C° 0 mm 1 mps 595 mmHg 62%
    10:00 +23°C° 0 mm 1 mps 595 mmHg 57%
    11:00 +25°C° 0 mm 2 mps 595 mmHg 53%
    12:00 +24°C° 0.7 mm 2 mps 595 mmHg 57%
    13:00 +24°C° 0.7 mm 3 mps 594 mmHg 62%
    14:00 +22°C° 0.7 mm 3 mps 593 mmHg 67%
    15:00 +22°C° 1.2 mm 3 mps 593 mmHg 72%
    16:00 +21°C° 1.2 mm 3 mps 593 mmHg 76%
    17:00 +20°C° 1.2 mm 2 mps 593 mmHg 81%
    18:00 +19°C° 0.6 mm 2 mps 593 mmHg 85%
    19:00 +17°C° 0.6 mm 2 mps 593 mmHg 89%
    20:00 +16°C° 0.6 mm 1 mps 593 mmHg 93%
    21:00 +16°C° 0.5 mm 1 mps 593 mmHg 92%
    22:00 +16°C° 0.5 mm 1 mps 593 mmHg 92%
    23:00 +16°C° 0.5 mm 1 mps 594 mmHg 91%

    28 August, Wednesday

    Time Temperature Precipitation Wind Pressure Humidity
    00:00 +16°C° 0.4 mm 1 mps 593 mmHg 90%
    01:00 +15°C° 0.4 mm 1 mps 593 mmHg 89%
    02:00 +15°C° 0.4 mm 1 mps 593 mmHg 88%
    03:00 +14°C° 0.1 mm 0 mps 593 mmHg 87%
    04:00 +14°C° 0.1 mm 0 mps 593 mmHg 87%
    05:00 +14°C° 0.1 mm 0 mps 593 mmHg 86%
    06:00 +15°C° 0 mm 0 mps 594 mmHg 81%
    07:00 +17°C° 0 mm 0 mps 595 mmHg 76%
    08:00 +19°C° 0 mm 0 mps 596 mmHg 70%
    09:00 +22°C° 0.1 mm 1 mps 596 mmHg 66%
    10:00 +23°C° 0.1 mm 2 mps 596 mmHg 61%
    11:00 +24°C° 0.1 mm 3 mps 597 mmHg 57%
    12:00 +24°C° 0.7 mm 3 mps 596 mmHg 60%
    13:00 +23°C° 0.7 mm 4 mps 595 mmHg 63%
    14:00 +22°C° 0.7 mm 4 mps 595 mmHg 66%
    15:00 +21°C° 0.4 mm 4 mps 594 mmHg 70%
    16:00 +20°C° 0.4 mm 3 mps 594 mmHg 75%
    17:00 +19°C° 0.4 mm 3 mps 594 mmHg 79%
    18:00 +18°C° 0.2 mm 3 mps 594 mmHg 84%
    19:00 +17°C° 0.2 mm 2 mps 594 mmHg 89%
    20:00 +16°C° 0.2 mm 2 mps 594 mmHg 95%
    21:00 +15°C° 0 mm 1 mps 594 mmHg 95%
    22:00 +15°C° 0 mm 1 mps 594 mmHg 95%
    23:00 +14°C° 0 mm 1 mps 594 mmHg 95%
    Show more